Tracking 19709 objects as of 20-Jun-2019
HD Live streaming from Space Station
objects crossing your sky now

OBJECT K

Track OBJECT K now!
10-day predictions


NORAD ID: 43728
Int'l Code: 2018-096K
Perigee: 480.5 km
Apogee: 504.2 km
Inclination: 97.5 °
Period: 94.3 minutes
Semi major axis: 6863 km
RCS: Unknown
Launch date: November 29, 2018
Source: (TBD)
Launch site: SRIHARIKOTA (SRI)
aabbcc
Your satellite tracking list
Your tracking list is empty




NASA's NSSDC Master Catalog

Two Line Element Set (TLE):
1 43728U 18096K   19170.78409813  .00001028  00000-0  41701-4 0  9994
2 43728  97.4607 240.8250 0017274 337.2785  22.7687 15.26847333 30902
Source of the keplerian elements: AFSPC